User: anonymous   Login
Location: Unspecified
(0.0000°N, 0.0000°E)
Time: 14:35:04
(UTC+00:00)
Language:

Uribyol 2 - Orbit

View from above orbital plane
View from above orbital plane
View from above satellite
View from above satellite

Ground track
Ground track

The orbit data is extracted from the following two-line orbital elements,

1 22828U 93061F   17084.85502029 -.00000019 +00000-0 +10160-4 0  9995
2 22828 098.7875 048.3539 0009994 167.7617 192.3809 14.30626437193793
Epoch (UTC): 25 March 2017 20:31:13
Eccentricity: 0.0009994
inclination: 98.7875°
perigee height: 782 km
apogee height: 797 km
right ascension of ascending node: 48.3539°
argument of perigee: 167.7617°
revolutions per day: 14.30626437
mean anomaly at epoch: 192.3809°
orbit number at epoch: 19379

The dashed part of the orbit path shows where the satellite is in the earth's shadow,  

DLR